DW7126 Lourinha PT current weather conditions

sailwx.info

Wind from 080 at 7 knots gusting 9

Air temperature 10.6° C
Dewpoint 9.5° C

Last reported at 2016-Dec-08 06:50 UTC.
Time now 2016-Dec-08 08:01 UTC

Location: N 39°14' W 009°18'.
View on Google Maps.

See reports from other nearby stations

  
Tides and Currents Weather Stations Pressure Air Temp Water Temp Dewpoint Dewpoint Depression Visibility Wind Speed Wind Dir Waves Ship Positions
date/time (UTC)wind fromknots sea level pressurealtimeterstation pressurevisibilityair tempwater tempwave heightnotes
2016-Dec-08 06:50 080 7 gusting 9 10.6
2016-Dec-08 06:40 087 7 gusting 11 11.1
2016-Dec-08 06:35 090 7 gusting 11 11.1
2016-Dec-08 06:30 089 7 gusting 9 11.1
2016-Dec-08 06:25 094 6 gusting 9 10.6
2016-Dec-08 06:20 360 6 gusting 10 10.6
2016-Dec-08 06:15 360 7 gusting 10 10.6
2016-Dec-08 06:10 090 6 gusting 9 11.1
2016-Dec-08 06:05 360 6 gusting 9 11.1
2016-Dec-08 06:00 360 7 gusting 9 11.1
2016-Dec-08 05:55 360 6 gusting 7 11.1
2016-Dec-08 05:50 089 6 gusting 6 10.6
2016-Dec-08 05:45 082 6 gusting 6 11.1
2016-Dec-08 05:40 360 5 gusting 6 11.1
2016-Dec-08 05:35 088 6 gusting 6 11.1
2016-Dec-08 05:30 082 5 gusting 6 11.1
2016-Dec-08 05:25 084 5 gusting 6 11.1
2016-Dec-08 05:20 081 4 gusting 6 11.1
2016-Dec-08 05:15 360 3 gusting 6 11.1
2016-Dec-08 05:10 109 2 gusting 6 11.1
2016-Dec-08 05:05 095 4 gusting 6 11.1
2016-Dec-08 05:00 360 5 gusting 6 11.1
2016-Dec-08 04:55 082 3 gusting 6 11.1
2016-Dec-08 04:50 084 4 gusting 6 11.1
2016-Dec-08 04:45 091 1 gusting 7 11.1
2016-Dec-08 04:40 360 4 gusting 7 11.1
2016-Dec-08 04:35 098 2 gusting 5 11.1
2016-Dec-08 04:30 092 2 gusting 6 11.1
2016-Dec-08 04:25 080 1 gusting 3 11.1
2016-Dec-08 04:20 079 11.1
2016-Dec-08 04:15 081 0 gusting 6 11.1
2016-Dec-08 04:10 081 2 gusting 8 11.1
2016-Dec-08 04:05 081 6 gusting 9 11.7
2016-Dec-08 04:00 082 6 gusting 12 11.7
2016-Dec-08 03:55 360 8 gusting 11 11.7
2016-Dec-08 03:50 093 9 gusting 12 11.7
2016-Dec-08 03:45 360 8 gusting 11 11.7
2016-Dec-08 03:40 094 8 gusting 11 11.7
2016-Dec-08 03:30 103 10 gusting 12 11.7
2016-Dec-08 03:25 360 9 gusting 13 11.7
2016-Dec-08 03:20 089 9 gusting 13 11.7
2016-Dec-08 03:15 360 8 gusting 11 11.7
2016-Dec-08 03:10 109 8 gusting 11 11.7
2016-Dec-08 03:05 101 8 gusting 12 11.7
2016-Dec-08 03:00 360 9 gusting 12 11.7
2016-Dec-08 02:55 360 9 gusting 13 11.7
2016-Dec-08 02:50 360 9 gusting 12 11.7
2016-Dec-08 02:45 360 8 gusting 11 12.2
2016-Dec-08 02:40 360 8 gusting 10 12.2
2016-Dec-08 02:35 360 6 gusting 9 12.2
2016-Dec-08 02:30 360 6 gusting 6 12.2
2016-Dec-08 02:25 103 4 gusting 6 12.2
2016-Dec-08 02:20 115 3 gusting 6 12.2
2016-Dec-08 02:15 114 3 gusting 5 12.2
2016-Dec-08 02:10 360 2 gusting 5 12.2
2016-Dec-08 02:05 108 1 gusting 5 12.8
2016-Dec-08 02:00 126 3 gusting 5 12.8
2016-Dec-08 01:55 121 2 gusting 6 12.8
2016-Dec-08 01:50 126 1 gusting 6 12.2
2016-Dec-08 01:45 137 1 gusting 5 12.2
2016-Dec-08 01:40 142 11.7
2016-Dec-08 01:35 142 11.7
2016-Dec-08 01:30 142 11.7
2016-Dec-08 01:25 142 11.7
2016-Dec-08 01:20 144 0 gusting 4 12.2
2016-Dec-08 01:15 150 0 gusting 6 12.2
2016-Dec-08 01:10 360 0 gusting 7 12.8
2016-Dec-08 01:05 117 3 gusting 6 12.8
2016-Dec-08 01:00 117 4 gusting 6 12.2
2016-Dec-08 00:55 101 2 gusting 6 12.8
2016-Dec-08 00:50 102 3 gusting 6 12.8
2016-Dec-08 00:45 145 3 gusting 6 12.8
2016-Dec-08 00:40 104 1 gusting 6 12.8
2016-Dec-08 00:35 096 2 gusting 7 12.2
2016-Dec-08 00:30 117 0 gusting 7 13.3
2016-Dec-08 00:25 142 2 gusting 6 13.3
2016-Dec-08 00:20 138 2 gusting 6 13.3
2016-Dec-08 00:15 360 2 gusting 6 13.3
2016-Dec-08 00:10 101 4 gusting 6 13.3
2016-Dec-08 00:05 360 3 gusting 6 13.3
2016-Dec-08 00:00 112 2 gusting 6 13.3
2016-Dec-07 23:55 131 1 gusting 6 13.3
2016-Dec-07 23:45 100 3 gusting 8 13.3
2016-Dec-07 23:40 360 5 gusting 7 12.8
2016-Dec-07 23:35 360 4 gusting 7 13.3
2016-Dec-07 23:30 360 5 gusting 9 13.3
2016-Dec-07 23:25 360 6 gusting 9 13.3
2016-Dec-07 23:20 360 6 gusting 9 13.3
2016-Dec-07 23:10 099 6 gusting 11 13.3
2016-Dec-07 23:05 360 7 gusting 11 13.3
2016-Dec-07 23:00 360 7 gusting 9 13.3
2016-Dec-07 22:55 115 6 gusting 9 13.3
2016-Dec-07 22:45 360 6 gusting 9 13.3
2016-Dec-07 22:40 360 6 gusting 8 13.9
2016-Dec-07 22:35 101 6 gusting 8 13.3
2016-Dec-07 22:25 105 6 gusting 7 13.3
2016-Dec-07 22:20 091 6 gusting 8 13.3
2016-Dec-07 22:15 360 6 gusting 8 13.3
2016-Dec-07 22:10 360 6 gusting 8 13.9
2016-Dec-07 22:05 360 6 gusting 9 13.9
2016-Dec-07 22:00 094 6 gusting 7 13.9
2016-Dec-07 21:55 360 6 gusting 8 13.9
2016-Dec-07 21:45 108 6 gusting 7 13.9
2016-Dec-07 21:40 360 6 gusting 8 13.9
2016-Dec-07 21:35 105 6 gusting 7 13.9
2016-Dec-07 21:25 107 3 gusting 8 13.9
2016-Dec-07 21:20 360 6 gusting 8 14.4
2016-Dec-07 21:15 098 6 gusting 8 14.4
2016-Dec-07 21:10 360 6 gusting 9 14.4
2016-Dec-07 21:05 360 6 gusting 9 14.4
2016-Dec-07 21:00 360 6 gusting 8 14.4
2016-Dec-07 20:55 360 6 gusting 10 14.4
2016-Dec-07 20:50 360 6 gusting 10 14.4
2016-Dec-07 20:45 360 7 gusting 10 14.4
2016-Dec-07 20:40 360 6 gusting 9 14.4
2016-Dec-07 20:35 360 7 gusting 9 14.4
2016-Dec-07 20:30 360 6 gusting 9 14.4
2016-Dec-07 20:25 360 6 gusting 8 14.4
2016-Dec-07 20:20 360 6 gusting 8 14.4
2016-Dec-07 20:15 360 6 gusting 8 14.4
2016-Dec-07 20:10 360 6 gusting 8 14.4
2016-Dec-07 20:05 113 6 gusting 8 14.4
2016-Dec-07 20:00 360 6 gusting 8 14.4
2016-Dec-07 19:55 360 6 gusting 8 14.4
2016-Dec-07 19:50 360 6 gusting 8 14.4
2016-Dec-07 19:45 360 6 gusting 10 14.4
2016-Dec-07 19:40 360 7 gusting 10 14.4
2016-Dec-07 19:35 360 7 gusting 11 14.4
2016-Dec-07 19:30 360 8 gusting 11 14.4
2016-Dec-07 19:25 360 8 gusting 13 14.4
2016-Dec-07 19:20 360 6 gusting 10 14.4
2016-Dec-07 19:15 360 6 gusting 11 14.4
2016-Dec-07 19:10 360 7 gusting 11 14.4
2016-Dec-07 19:05 360 6 gusting 9 14.4
2016-Dec-07 19:00 109 6 gusting 9 14.4
2016-Dec-07 18:55 360 6 gusting 9 14.4
2016-Dec-07 18:50 360 6 gusting 9 14.4
2016-Dec-07 18:45 107 7 gusting 9 15.0
2016-Dec-07 18:40 103 6 gusting 8 15.0
2016-Dec-07 18:35 360 5 gusting 6 15.0
2016-Dec-07 18:30 106 3 gusting 6 15.0
2016-Dec-07 18:25 117 3 gusting 6 15.6
2016-Dec-07 18:20 119 3 gusting 6 15.6
2016-Dec-07 18:10 130 2 gusting 6 15.0
2016-Dec-07 18:05 148 0 gusting 6 15.0
2016-Dec-07 18:00 360 3 gusting 6 15.6
2016-Dec-07 17:55 146 3 gusting 6 15.6
2016-Dec-07 17:50 132 3 gusting 6 15.6
2016-Dec-07 17:45 141 1 gusting 4 15.6
2016-Dec-07 17:40 135 1 gusting 4 15.6
2016-Dec-07 17:35 135 2 gusting 5 15.6
2016-Dec-07 17:30 138 2 gusting 4 15.6
2016-Dec-07 17:25 124 1 gusting 3 15.6
2016-Dec-07 17:20 109 0 gusting 4 15.6
2016-Dec-07 17:15 085 1 gusting 6 15.6
2016-Dec-07 17:10 109 3 gusting 6 15.6
2016-Dec-07 17:05 099 2 gusting 6 15.6
2016-Dec-07 17:00 117 3 gusting 6 16.1
2016-Dec-07 16:55 360 4 gusting 6 16.1
2016-Dec-07 16:50 360 3 gusting 6 16.1
2016-Dec-07 16:45 360 3 gusting 7 16.1
2016-Dec-07 16:40 102 1 gusting 6 16.1
2016-Dec-07 16:35 111 2 gusting 6 16.1
2016-Dec-07 16:30 110 3 gusting 6 16.1
2016-Dec-07 16:25 107 3 gusting 7 16.1
2016-Dec-07 16:20 083 4 gusting 7 16.1
2016-Dec-07 16:15 360 4 gusting 7 16.1
2016-Dec-07 16:10 095 4 gusting 6 16.1
2016-Dec-07 16:05 097 4 gusting 8 16.1
2016-Dec-07 16:00 360 4 gusting 7 16.1
2016-Dec-07 15:55 098 2 gusting 7 16.1
2016-Dec-07 15:50 106 0 gusting 8 16.1
2016-Dec-07 15:45 105 6 gusting 8 16.1
2016-Dec-07 15:40 360 6 gusting 8 16.1
2016-Dec-07 15:35 360 5 gusting 7 16.1
2016-Dec-07 15:30 103 5 gusting 8 16.1
2016-Dec-07 15:25 360 6 gusting 9 16.1
2016-Dec-07 15:20 094 5 gusting 11 16.1
2016-Dec-07 15:15 103 7 gusting 11 16.1
2016-Dec-07 15:10 360 6 gusting 9 16.1
2016-Dec-07 15:05 091 6 gusting 10 16.1
2016-Dec-07 15:00 360 6 gusting 10 16.1
2016-Dec-07 14:55 360 6 gusting 11 16.1
2016-Dec-07 14:50 360 6 gusting 11 16.1
2016-Dec-07 14:45 360 7 gusting 11 16.1
2016-Dec-07 14:40 114 6 gusting 11 16.1
2016-Dec-07 14:35 360 6 gusting 10 16.1
2016-Dec-07 14:30 360 6 gusting 8 16.1
2016-Dec-07 14:25 360 6 gusting 7 16.1
2016-Dec-07 14:20 360 5 gusting 8 16.1
2016-Dec-07 14:15 360 5 gusting 8 16.1
2016-Dec-07 14:10 109 5 gusting 8 16.1
2016-Dec-07 14:05 360 4 gusting 8 16.1
2016-Dec-07 14:00 360 5 gusting 9 16.1
2016-Dec-07 13:55 119 5 gusting 11 15.6
2016-Dec-07 13:50 360 6 gusting 11 15.6
2016-Dec-07 13:45 360 7 gusting 11 16.1
2016-Dec-07 13:40 360 6 gusting 11 16.1
2016-Dec-07 13:35 360 6 gusting 9 16.1
2016-Dec-07 13:30 360 5 gusting 11 16.1
2016-Dec-07 13:25 360 6 gusting 9 15.6
2016-Dec-07 13:20 098 5 gusting 9 15.6
2016-Dec-07 13:10 360 6 gusting 10 15.6
2016-Dec-07 13:05 360 6 gusting 11 15.6
2016-Dec-07 13:00 119 5 gusting 10 15.6
2016-Dec-07 12:55 360 6 gusting 10 15.6
2016-Dec-07 12:50 113 6 gusting 12 15.6
2016-Dec-07 12:45 360 7 gusting 12 15.6
2016-Dec-07 12:40 360 7 gusting 13 15.6
2016-Dec-07 12:35 360 6 gusting 13 15.6
2016-Dec-07 12:30 360 7 gusting 12 15.6
2016-Dec-07 12:25 360 8 gusting 12 15.6
2016-Dec-07 12:20 360 6 gusting 10 15.6
2016-Dec-07 12:15 360 6 gusting 12 15.6
2016-Dec-07 12:10 360 7 gusting 12 15.6
2016-Dec-07 12:05 360 7 gusting 11 15.6
2016-Dec-07 12:00 360 7 gusting 11 15.6
2016-Dec-07 11:55 360 6 gusting 9 15.6
2016-Dec-07 11:50 360 6 gusting 9 15.6
2016-Dec-07 11:45 360 5 gusting 11 15.0
2016-Dec-07 11:40 360 5 gusting 11 15.0
2016-Dec-07 11:35 360 6 gusting 11 15.0
2016-Dec-07 11:30 360 6 gusting 11 15.0
2016-Dec-07 11:25 360 6 gusting 11 15.0
2016-Dec-07 11:20 096 5 gusting 9 15.0
2016-Dec-07 11:15 360 3 gusting 7 15.0
2016-Dec-07 11:10 360 2 gusting 6 15.0
2016-Dec-07 11:05 094 2 gusting 5 15.0
2016-Dec-07 11:00 092 0 gusting 5 14.4
2016-Dec-07 10:55 084 1 gusting 6 14.4
2016-Dec-07 10:50 360 5 gusting 7 14.4
2016-Dec-07 10:45 360 5 gusting 7 14.4
2016-Dec-07 10:40 360 4 gusting 7 14.4
2016-Dec-07 10:35 360 6 gusting 8 14.4
2016-Dec-07 10:30 360 6 gusting 8 14.4
2016-Dec-07 10:25 086 0 gusting 4 14.4
2016-Dec-07 10:20 082 2 gusting 7 13.9
2016-Dec-07 10:15 112 5 gusting 11 13.9
2016-Dec-07 10:10 088 6 gusting 11 13.9
2016-Dec-07 10:05 360 6 gusting 11 13.9
2016-Dec-07 10:00 360 6 gusting 11 13.3
2016-Dec-07 09:55 360 6 gusting 11 13.3
2016-Dec-07 09:50 360 4 gusting 8 13.3
2016-Dec-07 09:45 360 5 gusting 7 13.3
2016-Dec-07 09:40 092 6 gusting 9 12.8
2016-Dec-07 09:35 360 6 gusting 9 12.8
2016-Dec-07 09:25 360 6 gusting 9 12.2
2016-Dec-07 09:20 360 6 gusting 10 12.2
2016-Dec-07 09:15 360 6 gusting 10 12.2
2016-Dec-07 09:10 360 6 gusting 11 12.2
2016-Dec-07 09:05 360 6 gusting 12 12.2
2016-Dec-07 09:00 360 7 gusting 11 12.2
2016-Dec-07 08:55 360 7 gusting 13 12.2
2016-Dec-07 08:50 360 8 gusting 13 11.7
2016-Dec-07 08:45 360 8 gusting 11 11.7
2016-Dec-07 08:40 360 7 gusting 11 11.7
2016-Dec-07 08:35 098 7 gusting 11 11.7
2016-Dec-07 08:30 360 6 gusting 10 11.7
2016-Dec-07 08:25 360 6 gusting 10 11.7
2016-Dec-07 08:20 360 6 gusting 10 11.7
2016-Dec-07 08:15 360 7 gusting 10 11.7
2016-Dec-07 08:10 360 7 gusting 11 11.7
2016-Dec-07 08:05 360 8 gusting 11 11.7
2016-Dec-07 08:00 360 7 gusting 13 11.7
2016-Dec-07 07:55 096 7 gusting 11 11.7
2016-Dec-07 07:50 094 6 gusting 11 11.7
2016-Dec-07 07:45 360 6 gusting 10 11.7
2016-Dec-07 07:40 360 6 gusting 9 11.7
2016-Dec-07 07:35 360 5 gusting 8 11.7
2016-Dec-07 07:30 075 5 gusting 8 11.7
2016-Dec-07 07:25 360 5 gusting 9 11.7
2016-Dec-07 07:20 360 6 gusting 9 11.7
2016-Dec-07 07:15 076 6 gusting 10 11.7
2016-Dec-07 07:10 360 5 gusting 9 11.7
2016-Dec-07 07:05 102 6 gusting 9 11.7
2016-Dec-07 07:00 360 6 gusting 8 11.7
2016-Dec-07 06:55 360 2 gusting 6 11.7
2016-Dec-07 06:50 113 11.7
2016-Dec-07 06:45 108 11.7
2016-Dec-07 06:40 115 1 gusting 6 11.7
2016-Dec-07 06:35 360 4 gusting 10 11.7
2016-Dec-07 06:30 360 6 gusting 10 11.7
2016-Dec-07 06:25 360 7 gusting 13 11.7
2016-Dec-07 06:20 360 7 gusting 13 11.7
2016-Dec-07 06:15 360 8 gusting 12 12.2
2016-Dec-07 06:10 360 7 gusting 10 12.2
2016-Dec-07 06:05 360 7 gusting 9 11.7
2016-Dec-07 06:00 360 6 gusting 10 11.7
2016-Dec-07 05:55 360 6 gusting 10 11.7
2016-Dec-07 05:50 360 5 gusting 9 11.7
2016-Dec-07 05:45 109 6 gusting 9 11.7
2016-Dec-07 05:40 107 6 gusting 9 11.7
2016-Dec-07 05:35 116 3 gusting 7 11.1
2016-Dec-07 05:30 103 2 gusting 7 11.1
2016-Dec-07 05:25 113 1 gusting 4 11.1
2016-Dec-07 05:20 123 1 gusting 4 11.1
2016-Dec-07 05:15 119 0 gusting 6 11.1
2016-Dec-07 05:10 092 1 gusting 6 11.1
2016-Dec-07 05:05 109 2 gusting 7 11.1
2016-Dec-07 05:00 103 2 gusting 5 11.1
2016-Dec-07 04:55 186 11.1
2016-Dec-07 04:50 186 11.1
2016-Dec-07 04:45 186 11.1
2016-Dec-07 04:40 187 11.1
2016-Dec-07 04:35 275 0 gusting 4 10.6
2016-Dec-07 04:30 240 0 gusting 3 10.6
2016-Dec-07 04:25 134 11.1
2016-Dec-07 04:20 134 11.1
2016-Dec-07 04:15 135 10.6
2016-Dec-07 04:10 135 10.6
2016-Dec-07 04:05 135 10.6
2016-Dec-07 04:00 136 10.6
2016-Dec-07 03:55 137 10.6
2016-Dec-07 03:50 137 10.6
2016-Dec-07 03:45 137 10.6
2016-Dec-07 03:40 137 10.6
2016-Dec-07 03:35 137 10.6
2016-Dec-07 03:30 136 10.6
2016-Dec-07 03:25 136 0 gusting 1 10.6
2016-Dec-07 03:20 136 10.0
2016-Dec-07 03:15 136 10.0
2016-Dec-07 03:10 136 10.6
2016-Dec-07 02:55 136 11.7
2016-Dec-07 02:50 136 1 gusting 2 11.1
2016-Dec-07 02:45 136 11.1
2016-Dec-07 02:40 136 11.1
2016-Dec-07 02:35 136 11.7
2016-Dec-07 02:30 136 11.7
2016-Dec-07 02:25 137 11.7
2016-Dec-07 02:20 137 12.2
2016-Dec-07 02:15 137 12.2
2016-Dec-07 02:10 137 11.7
2016-Dec-07 02:05 137 11.7
2016-Dec-07 02:00 137 12.2
2016-Dec-07 01:55 137 12.2
2016-Dec-07 01:50 137 12.2
2016-Dec-07 01:45 137 12.2
2016-Dec-07 01:40 137 12.2
2016-Dec-07 01:35 137 12.2
2016-Dec-07 01:30 137 12.2
2016-Dec-07 01:25 137 0 gusting 4 12.2
2016-Dec-07 01:20 139 2 gusting 6 12.2
2016-Dec-07 01:15 140 3 gusting 6 12.8
2016-Dec-07 01:10 125 2 gusting 6 12.2
2016-Dec-07 01:05 126 0 gusting 6 12.2
2016-Dec-07 01:00 128 4 gusting 6 13.3
2016-Dec-07 00:55 130 5 gusting 7 13.3
2016-Dec-07 00:50 126 4 gusting 6 12.2
2016-Dec-07 00:45 135 3 gusting 5 12.8
2016-Dec-07 00:40 138 0 gusting 3 11.7
2016-Dec-07 00:35 136 11.7
2016-Dec-07 00:30 136 11.7
2016-Dec-07 00:25 137 11.7
2016-Dec-07 00:20 136 11.7
2016-Dec-07 00:15 136 11.7
2016-Dec-07 00:10 137 11.7
2016-Dec-07 00:05 137 11.7
2016-Dec-07 00:00 137 11.7
2016-Dec-06 23:55 137 11.7
2016-Dec-06 23:50 137 11.7
2016-Dec-06 23:45 139 0 gusting 2 12.2
2016-Dec-06 23:40 140 11.7
2016-Dec-06 23:35 140 11.7
2016-Dec-06 23:30 140 11.7
2016-Dec-06 23:25 140 11.7
2016-Dec-06 23:20 140 11.7
2016-Dec-06 23:15 140 11.7
2016-Dec-06 23:10 140 11.7
2016-Dec-06 23:05 140 11.1
2016-Dec-06 23:00 139 11.7
2016-Dec-06 22:55 139 11.1
2016-Dec-06 22:50 139 11.1
2016-Dec-06 22:45 139 11.1
2016-Dec-06 22:40 138 11.7
2016-Dec-06 22:35 138 12.2
2016-Dec-06 22:30 138 12.2
2016-Dec-06 22:25 138 12.2
2016-Dec-06 22:20 138 11.7
2016-Dec-06 22:15 138 12.2
2016-Dec-06 22:10 138 11.7
2016-Dec-06 22:05 138 11.7
2016-Dec-06 22:00 138 11.1
2016-Dec-06 21:55 138 11.7
2016-Dec-06 21:50 136 11.7
2016-Dec-06 21:45 136 11.7
2016-Dec-06 21:40 136 11.7
2016-Dec-06 21:35 136 12.2
2016-Dec-06 21:30 138 1 gusting 3 12.2
2016-Dec-06 21:25 215 12.2
2016-Dec-06 21:20 215 12.8
2016-Dec-06 21:15 215 12.8
2016-Dec-06 21:10 215 12.8
2016-Dec-06 21:05 215 12.2
2016-Dec-06 21:00 215 12.2
2016-Dec-06 20:55 215 12.8
2016-Dec-06 20:50 215 12.8
2016-Dec-06 20:45 215 12.8
2016-Dec-06 20:40 216 12.8
2016-Dec-06 20:35 215 12.8
2016-Dec-06 20:30 215 12.8
2016-Dec-06 20:25 215 12.8
2016-Dec-06 20:20 215 12.8
2016-Dec-06 20:15 215 12.8
2016-Dec-06 20:10 216 12.8
2016-Dec-06 20:05 215 12.8
2016-Dec-06 20:00 215 12.8
2016-Dec-06 19:55 216 12.8
2016-Dec-06 19:50 216 12.8
2016-Dec-06 19:45 216 13.3
2016-Dec-06 19:40 215 13.3
2016-Dec-06 19:35 216 13.3
2016-Dec-06 19:30 216 13.3
2016-Dec-06 19:25 215 13.3
2016-Dec-06 19:20 215 13.9
2016-Dec-06 19:15 216 13.9
2016-Dec-06 19:10 215 13.3
2016-Dec-06 19:05 215 13.3
2016-Dec-06 19:00 216 13.3
2016-Dec-06 18:55 215 13.3
2016-Dec-06 18:50 215 13.3
2016-Dec-06 18:45 215 13.9
2016-Dec-06 18:40 215 13.9
2016-Dec-06 18:35 215 13.9
2016-Dec-06 18:30 215 13.9
2016-Dec-06 18:25 215 13.9
2016-Dec-06 18:20 215 13.9
2016-Dec-06 18:15 215 14.4
2016-Dec-06 18:10 215 14.4
2016-Dec-06 18:05 215 15.6
2016-Dec-06 18:00 216 15.6
2016-Dec-06 17:55 216 15.6
2016-Dec-06 17:50 216 15.6
2016-Dec-06 17:45 217 15.0
2016-Dec-06 17:40 217 15.6
2016-Dec-06 17:35 217 15.6
2016-Dec-06 17:30 217 15.6
2016-Dec-06 17:25 216 15.6
2016-Dec-06 17:20 216 0 gusting 2 15.6
2016-Dec-06 17:15 216 16.1
2016-Dec-06 17:10 216 16.7
2016-Dec-06 17:05 216 16.7
2016-Dec-06 17:00 216 17.2
2016-Dec-06 16:55 215 17.2
2016-Dec-06 16:50 214 17.2
2016-Dec-06 16:45 214 17.8
2016-Dec-06 16:40 214 18.3
2016-Dec-06 16:35 212 18.9
2016-Dec-06 16:30 212 18.9
2016-Dec-06 16:25 211 18.9
2016-Dec-06 16:20 211 18.9
2016-Dec-06 16:15 211 18.9
2016-Dec-06 16:10 211 19.4
2016-Dec-06 16:05 211 18.9
2016-Dec-06 16:00 211 18.9
2016-Dec-06 15:55 211 18.3
2016-Dec-06 15:50 211 18.3
2016-Dec-06 15:45 209 1 gusting 4 18.3
2016-Dec-06 15:40 215 1 gusting 5 18.3
2016-Dec-06 15:35 212 3 gusting 5 18.3
2016-Dec-06 15:30 211 4 gusting 6 17.8
2016-Dec-06 15:25 244 3 gusting 6 18.3
2016-Dec-06 15:20 269 2 gusting 7 18.3
2016-Dec-06 15:15 273 2 gusting 8 18.3
2016-Dec-06 15:10 253 6 gusting 8 18.3
2016-Dec-06 15:00 119 1 gusting 5 20.0
2016-Dec-06 14:55 121 2 gusting 6 20.0
2016-Dec-06 14:50 126 0 gusting 6 20.0
2016-Dec-06 14:45 117 2 gusting 6 20.0
2016-Dec-06 14:40 154 3 gusting 8 20.0
2016-Dec-06 14:35 130 5 gusting 8 20.0
2016-Dec-06 14:30 131 2 gusting 8 19.4
2016-Dec-06 14:25 112 4 gusting 7 20.0
2016-Dec-06 14:20 117 2 gusting 7 19.4
2016-Dec-06 14:15 106 2 gusting 6 19.4
2016-Dec-06 14:10 108 1 gusting 6 19.4
2016-Dec-06 14:05 100 0 gusting 6 19.4
2016-Dec-06 14:00 111 2 gusting 6 19.4
2016-Dec-06 13:55 103 2 gusting 6 19.4
2016-Dec-06 13:50 130 1 gusting 6 19.4
2016-Dec-06 13:45 171 3 gusting 6 19.4
2016-Dec-06 13:40 109 19.4
2016-Dec-06 13:35 086 2 gusting 6 18.9
2016-Dec-06 13:30 080 2 gusting 8 18.9
2016-Dec-06 13:25 123 5 gusting 8 18.9
2016-Dec-06 13:20 141 5 gusting 8 18.9
2016-Dec-06 13:15 111 4 gusting 7 18.9
2016-Dec-06 13:10 117 1 gusting 7 18.9
2016-Dec-06 13:05 098 3 gusting 7 18.9
2016-Dec-06 13:00 088 3 gusting 7 18.9
2016-Dec-06 12:55 116 0 gusting 6 18.9
2016-Dec-06 12:50 119 2 gusting 8 18.9
2016-Dec-06 12:45 125 3 gusting 8 18.3
2016-Dec-06 12:40 100 4 gusting 11 17.8
2016-Dec-06 12:35 119 6 gusting 11 17.8
2016-Dec-06 12:30 108 4 gusting 9 17.8
2016-Dec-06 12:25 165 4 gusting 9 17.8
2016-Dec-06 12:20 163 6 gusting 10 17.8
2016-Dec-06 12:15 191 5 gusting 8 17.8
2016-Dec-06 12:10 196 5 gusting 8 17.8
2016-Dec-06 12:05 146 3 gusting 11 17.8
2016-Dec-06 12:00 120 4 gusting 13 17.8
2016-Dec-06 11:55 122 6 gusting 13 17.8
2016-Dec-06 11:50 130 5 gusting 11 17.2
2016-Dec-06 11:45 149 6 gusting 13 17.2
2016-Dec-06 11:40 360 6 gusting 14 17.2
2016-Dec-06 11:35 117 7 gusting 13 17.2
2016-Dec-06 11:30 121 6 gusting 13 17.2
2016-Dec-06 11:25 130 3 gusting 9 17.8
2016-Dec-06 11:20 136 6 gusting 9 17.2
2016-Dec-06 11:15 080 4 gusting 10 17.2
2016-Dec-06 11:10 360 6 gusting 11 16.7
2016-Dec-06 11:05 360 8 gusting 11 16.7
2016-Dec-06 11:00 090 7 gusting 13 16.7
2016-Dec-06 10:55 360 8 gusting 13 16.1
2016-Dec-06 10:50 360 9 gusting 13 16.1
2016-Dec-06 10:45 360 9 gusting 13 16.1
2016-Dec-06 10:40 360 9 gusting 13 15.6
2016-Dec-06 10:35 061 6 gusting 10 15.6
2016-Dec-06 10:30 360 8 gusting 13 15.6
2016-Dec-06 10:25 360 6 gusting 13 15.6
2016-Dec-06 10:20 092 7 gusting 13 15.6
2016-Dec-06 10:15 106 7 gusting 11 15.6
2016-Dec-06 10:10 360 6 gusting 10 15.0
2016-Dec-06 10:05 360 6 gusting 10 15.0
2016-Dec-06 10:00 090 6 gusting 12 15.0
2016-Dec-06 09:55 360 8 gusting 12 15.0
2016-Dec-06 09:50 360 7 gusting 11 15.0
2016-Dec-06 09:45 093 7 gusting 13 14.4
2016-Dec-06 09:40 360 8 gusting 13 14.4
2016-Dec-06 09:35 360 8 gusting 13 14.4
2016-Dec-06 09:30 360 9 gusting 12 13.9
2016-Dec-06 09:25 360 8 gusting 12 13.9
2016-Dec-06 09:20 360 8 gusting 12 13.9
2016-Dec-06 09:10 087 9 gusting 11 13.9
2016-Dec-06 09:05 360 6 gusting 12 13.9
2016-Dec-06 09:00 105 7 gusting 13 13.3
2016-Dec-06 08:55 360 8 gusting 13 13.3
2016-Dec-06 08:50 360 7 gusting 11 13.3
2016-Dec-06 08:45 360 8 gusting 11 13.3
2016-Dec-06 08:40 360 6 gusting 10 13.3
2016-Dec-06 08:35 360 7 gusting 9 13.3
2016-Dec-06 08:30 360 6 gusting 10 13.3
2016-Dec-06 08:25 360 6 gusting 10 13.3
2016-Dec-06 08:15 105 5 gusting 7 12.8
2016-Dec-06 08:10 101 5 gusting 8 12.8
2016-Dec-06 08:05 102 3 gusting 6 12.2
2016-Dec-06 08:00 121 2 gusting 4 12.2